DW6352 Weather Reports


time (UTC)temp
C
wind
direction
speed
KPH
gust
KPH
rain 1hr
cm
rain 24hr
cm
rain mn
cm
humidity
%
barometer
mb
20260507060018 4 240 3.2 6.4 0.00 0.00 0.00 58 1013.9
20260507054517 4 271 1.6 4.8 0.00 0.00 0.00 57 1013.9
20260507053016 4 275 3.2 6.4 0.00 0.00 0.00 56 1014.1
20260507051513 4 281 0.0 6.4 0.00 0.00 0.00 56 1014.1
20260507050011 4 269 1.6 9.7 0.00 0.00 0.00 56 1014.3
20260507044511 4 282 3.2 9.7 0.00 0.00 0.00 55 1014.3
20260507043011 4 268 1.6 6.4 0.00 0.00 0.00 55 1014.4
20260507041512 4 258 1.6 9.7 0.00 0.00 0.00 54 1014.4
20260507040009 5 261 1.6 9.7 0.00 0.00 0.00 54 1014.6
20260507034510 5 269 3.2 9.7 0.00 0.00 0.00 54 1014.7
20260507033009 5 270 1.6 12.9 0.00 0.00 0.00 53 1014.7
20260507031511 5 301 1.6 4.8 0.00 0.00 0.00 53 1014.7
20260507030008 5 269 3.2 9.7 0.00 0.00 0.00 52 1014.8
20260507024507 5 271 4.8 9.7 0.00 0.00 0.00 52 1014.8
20260507023007 5 269 1.6 11.3 0.00 0.00 0.00 51 1014.8
20260507021506 5 263 4.8 9.7 0.00 0.00 0.00 50 1014.8
20260507020006 5 257 1.6 6.4 0.00 0.00 0.00 50 1014.7
20260507014509 5 284 3.2 8.0 0.00 0.00 0.00 49 1014.6
20260507013005 5 297 3.2 11.3 0.00 0.00 0.00 49 1014.5
20260507011505 5 290 3.2 11.3 0.00 0.00 0.00 49 1014.6
20260507010010 5 246 1.6 12.9 0.00 0.00 0.00 49 1014.7
20260507004504 5 303 4.8 12.9 0.00 0.00 0.00 48 1014.7
20260507003008 6 261 6.4 16.1 0.00 0.00 0.00 48 1014.8
20260507001503 6 329 4.8 19.3 0.00 0.00 0.00 48 1014.9
20260507000003 6 257 9.7 17.7 0.00 0.00 0.00 48 1014.9
20260506234502 6 294 8.0 20.9 0.00 0.00 0.00 47 1015.0
20260506233003 6 273 9.7 22.5 0.00 0.00 0.00 47 1015.0
20260506231505 6 280 8.0 19.3 0.00 0.00 0.00 47 1015.0
20260506230001 6 248 6.4 16.1 0.00 0.00 0.00 49 1015.2
20260506224501 6 278 6.4 17.7 0.00 0.00 0.00 48 1015.2
20260506223000 6 255 8.0 20.9 0.00 0.00 0.00 47 1015.2
20260506221608 6 211 9.7 19.3 0.00 0.00 0.00 49 1015.3
20260506220058 6 327 9.7 19.3 0.00 0.00 0.00 49 1015.4
20260506214604 5 306 9.7 20.9 0.00 0.00 0.00 49 1015.5
20260506213057 5 289 9.7 20.9 0.00 0.00 0.00 49 1015.6
20260506211556 5 307 9.7 24.1 0.00 0.00 0.00 50 1015.7
20260506210055 5 290 11.3 20.9 0.00 0.00 0.00 51 1015.7
20260506204559 5 253 14.5 24.1 0.00 0.00 0.00 50 1015.7
20260506203054 5 330 9.7 20.9 0.00 0.00 0.00 50 1015.8
20260506201554 5 237 12.9 22.5 0.00 0.00 0.00 50 1015.8
20260506200052 5 261 8.0 16.1 0.00 0.00 0.00 51 1015.8
20260506194551 5 284 6.4 27.4 0.00 0.00 0.00 51 1015.9
20260506193050 5 261 6.4 17.7 0.00 0.00 0.00 53 1015.9
20260506191549 5 290 8.0 19.3 0.00 0.00 0.00 52 1016.1
20260506190048 5 161 9.7 16.1 0.00 0.00 0.00 52 1016.0
20260506184547 5 264 9.7 17.7 0.00 0.00 0.00 51 1016.0
20260506183047 4 267 11.3 24.1 0.00 0.00 0.00 51 1016.1
20260506181546 4 277 16.1 22.5 0.00 0.00 0.00 53 1016.2
20260506180044 4 291 6.4 22.5 0.00 0.00 0.00 54 1016.3
20260506174554 4 306 8.0 19.3 0.00 0.00 0.00 54 1016.4
20260506173043 3 250 8.0 27.4 0.00 0.00 0.00 54 1016.4
20260506171541 4 259 9.7 25.7 0.00 0.00 0.00 53 1016.4
20260506170045 3 292 11.3 20.9 0.00 0.00 0.00 55 1016.6
20260506164539 3 298 17.7 27.4 0.00 0.00 0.00 55 1016.6
20260506163042 3 242 12.9 19.3 0.00 0.00 0.00 54 1016.6
20260506161538 3 327 12.9 22.5 0.00 0.00 0.00 54 1016.6
20260506160030 3 323 16.1 24.1 0.00 0.00 0.00 56 1016.6
20260506154527 3 309 12.9 27.4 0.00 0.00 0.00 57 1016.5
20260506153034 2 286 11.3 24.1 0.00 0.00 0.00 57 1016.5
20260506151520 2 317 16.1 27.4 0.00 0.00 0.00 58 1016.4
20260506150018 2 288 16.1 27.4 0.00 0.00 0.00 57 1016.4
20260506144529 2 284 11.3 22.5 0.00 0.00 0.00 58 1016.3
20260506143014 2 262 11.3 20.9 0.00 0.00 0.00 59 1016.3
20260506141511 2 296 11.3 19.3 0.00 0.00 0.00 60 1016.3
20260506140008 2 281 6.4 24.1 0.00 0.00 0.00 60 1016.1
20260506134506 2 300 11.3 20.9 0.00 0.00 0.00 60 1015.8
20260506133003 2 288 14.5 20.9 0.00 0.00 0.00 61 1015.7
20260506131600 2 311 8.0 22.5 0.00 0.00 0.00 61 1015.6
20260506130138 2 295 6.4 17.7 0.00 0.00 0.00 62 1015.5
20260506124555 2 285 8.0 17.7 0.00 0.00 0.00 63 1015.5
20260506123051 2 247 8.0 17.7 0.00 0.00 0.00 62 1015.4
20260506121553 2 305 9.7 19.3 0.00 0.00 0.00 62 1015.1
20260506120045 2 297 8.0 17.7 0.00 0.00 0.00 62 1015.0
20260506114543 2 257 4.8 12.9 0.00 0.00 0.00 62 1014.9
20260506113049 2 297 4.8 12.9 0.00 0.00 0.00 62 1014.8
20260506111538 2 311 4.8 11.3 0.00 0.00 0.00 62 1014.8
20260506110041 2 269 4.8 11.3 0.00 0.00 0.00 62 1014.6
20260506104533 2 281 3.2 9.7 0.00 0.00 0.00 61 1014.3
20260506103033 2 274 4.8 11.3 0.00 0.00 0.00 61 1014.2
20260506101535 2 293 4.8 14.5 0.00 0.00 0.00 60 1014.2
20260506100036 2 263 3.2 9.7 0.00 0.00 0.00 60 1014.2
20260506094532 2 302 4.8 12.9 0.00 0.00 0.00 60 1014.3
20260506093034 2 292 4.8 14.5 0.00 0.00 0.00 60 1014.2
20260506091528 2 303 8.0 16.1 0.00 0.00 0.00 60 1014.0
20260506090036 2 303 8.0 14.5 0.00 0.00 0.00 61 1013.9
20260506084532 2 317 6.4 17.7 0.00 0.00 0.00 62 1013.9
20260506083030 2 306 6.4 14.5 0.00 0.00 0.00 63 1014.0
20260506081522 1 277 9.7 17.7 0.00 0.00 0.00 64 1013.8
20260506073020 1 302 3.2 9.7 0.00 0.00 0.00 66 1013.7
20260506071519 0 296 3.2 9.7 0.00 0.00 0.00 67 1013.7
20260506061511 0 321 0.0 6.4 0.00 0.00 0.00 65 1013.7